GFSSGP_500_temp_159.txt.gz
Temp
-5 -5 -5 -5 -5 -4 -5 -5 -5 -6 -7 -7 -7 -7 -7 -7 -7 -6 -5 -5 -5 -5 -4 -4 -3 -3 -3 -3 -3 -3 -3 -2 -2 -3 -3 -3 -3 -3 -3 -3 -4 -4 -4 -4 -4 -4 -4 -4 -5
-5 -5 -5 -4 -4 -4 -4 -5 -5 -6 -7 -7 -7 -7 -7 -7 -6 -5 -4 -4 -5 -4 -5 -5 -4 -4 -4 -3 -3 -3 -3 -3 -2 -3 -3 -3 -3 -3 -3 -4 -4 -4 -4 -4 -4 -4 -4 -5 -5
-5 -5 -5 -4 -4 -4 -4 -5 -5 -5 -7 -7 -7 -7 -7 -7 -6 -5 -5 -6 -5 -5 -5 -5 -4 -4 -4 -4 -4 -3 -3 -3 -3 -3 -3 -3 -3 -3 -4 -4 -4 -4 -4 -4 -4 -5 -5 -5 -6
-5 -5 -5 -4 -4 -4 -4 -5 -5 -6 -7 -7 -7 -7 -6 -6 -6 -5 -6 -6 -6 -5 -5 -5 -4 -4 -4 -4 -4 -4 -3 -3 -3 -3 -3 -3 -4 -4 -4 -4 -4 -4 -4 -4 -5 -5 -5 -6 -6
-5 -4 -4 -4 -4 -4 -4 -5 -6 -6 -6 -7 -8 -7 -7 -6 -5 -5 -6 -6 -6 -6 -5 -5 -5 -5 -5 -4 -4 -4 -4 -3 -3 -3 -4 -4 -4 -4 -4 -4 -4 -4 -4 -4 -5 -5 -6 -6 -6
-4 -4 -4 -3 -4 -4 -4 -5 -5 -7 -7 -6 -6 -7 -8 -6 -5 -5 -5 -6 -6 -6 -5 -5 -5 -5 -5 -5 -5 -4 -4 -4 -4 -4 -4 -4 -4 -4 -4 -4 -4 -4 -4 -5 -5 -5 -6 -6 -7
-5 -5 -4 -4 -3 -4 -4 -5 -5 -6 -7 -8 -8 -7 -7 -6 -5 -4 -5 -5 -6 -6 -6 -5 -5 -5 -5 -5 -5 -5 -4 -4 -4 -4 -4 -4 -4 -5 -4 -4 -4 -4 -4 -5 -5 -6 -6 -7 -7
-6 -5 -4 -4 -4 -3 -5 -6 -6 -6 -6 -7 -8 -9 -8 -7 -5 -4 -4 -5 -5 -6 -6 -5 -5 -5 -5 -5 -5 -5 -5 -5 -5 -4 -4 -4 -5 -4 -4 -4 -4 -4 -4 -5 -5 -6 -6 -7 -7
-5 -4 -4 -4 -5 -5 -6 -6 -7 -7 -7 -7 -8 -9 -9 -8 -7 -4 -4 -4 -5 -6 -6 -5 -5 -5 -5 -6 -6 -6 -6 -5 -5 -4 -5 -5 -5 -5 -4 -4 -4 -4 -4 -5 -5 -6 -6 -7 -7
-6 -5 -5 -5 -5 -5 -5 -6 -6 -7 -8 -7 -8 -8 -9 -8 -7 -5 -5 -5 -4 -5 -7 -7 -6 -5 -5 -6 -6 -6 -6 -5 -5 -5 -5 -5 -5 -5 -4 -4 -4 -4 -4 -5 -5 -6 -6 -7 -7
-6 -5 -5 -5 -6 -6 -6 -6 -6 -6 -7 -8 -8 -7 -9 -9 -9 -6 -6 -6 -5 -5 -6 -6 -6 -5 -5 -5 -6 -6 -6 -6 -5 -5 -5 -5 -5 -5 -5 -5 -5 -5 -4 -5 -6 -6 -6 -7 -7
-5 -6 -5 -5 -6 -6 -6 -6 -6 -6 -5 -7 -8 -8 -7 -7 -7 -8 -7 -7 -6 -5 -5 -6 -6 -5 -5 -5 -5 -6 -6 -6 -6 -5 -5 -5 -5 -5 -5 -5 -5 -5 -5 -5 -6 -6 -6 -7 -7
-6 -6 -6 -7 -7 -6 -6 -6 -6 -6 -6 -6 -8 -8 -8 -7 -6 -6 -7 -7 -7 -5 -5 -5 -6 -5 -4 -5 -5 -6 -6 -6 -6 -5 -5 -6 -5 -6 -5 -5 -5 -5 -5 -5 -6 -6 -7 -7 -7
-9 -9 -8 -8 -8 -9 -9 -9 -8 -7 -7 -7 -7 -8 -8 -8 -7 -6 -7 -7 -7 -6 -5 -5 -6 -6 -5 -5 -5 -6 -6 -6 -6 -5 -5 -6 -6 -6 -6 -6 -5 -5 -5 -6 -6 -6 -7 -7 -7
-9 -10 -10 -10 -10 -10 -12 -10 -9 -9 -9 -9 -11 -10 -9 -9 -8 -7 -7 -6 -7 -7 -5 -4 -5 -6 -5 -5 -5 -5 -5 -5 -6 -5 -5 -6 -6 -6 -6 -6 -6 -5 -5 -6 -6 -6 -7 -7 -7
-12 -13 -13 -13 -13 -13 -14 -11 -12 -12 -11 -10 -11 -12 -12 -11 -10 -9 -8 -8 -7 -7 -6 -5 -5 -6 -5 -5 -5 -5 -5 -5 -6 -5 -5 -6 -6 -7 -6 -6 -6 -6 -5 -6 -6 -6 -7 -7 -7
-15 -14 -14 -14 -14 -14 -14 -13 -13 -14 -13 -13 -11 -11 -11 -11 -12 -11 -11 -10 -9 -8 -7 -6 -6 -6 -6 -6 -7 -6 -6 -6 -6 -5 -6 -6 -6 -7 -7 -6 -6 -6 -6 -6 -7 -7 -7 -8 -8
-15 -14 -14 -14 -13 -14 -15 -14 -14 -16 -17 -16 -16 -15 -11 -11 -11 -12 -12 -12 -11 -8 -7 -7 -7 -7 -6 -7 -7 -7 -7 -6 -6 -6 -6 -6 -7 -7 -7 -7 -7 -7 -7 -7 -7 -7 -8 -8 -9
-15 -15 -15 -14 -15 -16 -16 -16 -15 -16 -17 -17 -16 -14 -16 -12 -10 -11 -11 -12 -13 -10 -8 -7 -7 -7 -7 -7 -8 -9 -7 -6 -6 -7 -7 -7 -7 -7 -7 -8 -7 -7 -7 -7 -7 -8 -9 -8 -8
-15 -16 -16 -16 -16 -19 -19 -18 -17 -17 -18 -17 -17 -17 -16 -15 -11 -11 -11 -11 -12 -12 -9 -7 -7 -7 -7 -8 -8 -8 -7 -8 -7 -7 -7 -8 -8 -7 -7 -7 -7 -7 -7 -7 -8 -9 -9 -8 -8
-16 -16 -17 -20 -18 -19 -20 -19 -17 -18 -18 -17 -17 -17 -16 -16 -15 -15 -14 -11 -11 -12 -10 -8 -7 -8 -8 -8 -8 -8 -8 -8 -6 -7 -7 -7 -8 -7 -8 -7 -7 -7 -8 -8 -8 -8 -8 -8 -9
-15 -17 -18 -19 -20 -19 -19 -18 -18 -18 -18 -18 -18 -18 -17 -18 -16 -15 -15 -13 -11 -11 -11 -10 -9 -7 -8 -8 -8 -8 -8 -8 -7 -7 -8 -8 -8 -7 -8 -8 -8 -8 -8 -9 -8 -8 -8 -9 -9
-16 -17 -17 -18 -19 -18 -18 -19 -16 -18 -18 -18 -18 -18 -18 -17 -17 -16 -16 -15 -13 -12 -10 -10 -10 -9 -9 -9 -8 -8 -8 -8 -7 -7 -8 -9 -7 -7 -9 -9 -9 -9 -9 -9 -9 -9 -9 -9 -9
-17 -17 -17 -17 -18 -17 -18 -19 -16 -18 -18 -19 -19 -18 -19 -18 -19 -16 -16 -16 -14 -12 -11 -10 -9 -9 -9 -9 -8 -8 -8 -8 -8 -7 -8 -8 -7 -8 -9 -10 -9 -10 -9 -9 -9 -9 -10 -9 -9
-17 -17 -17 -17 -17 -17 -19 -19 -17 -18 -18 -18 -18 -18 -18 -18 -18 -18 -16 -16 -16 -14 -13 -10 -10 -9 -9 -9 -8 -7 -8 -8 -8 -8 -9 -9 -9 -10 -10 -10 -10 -10 -9 -9 -9 -9 -9 -9 -9
-17 -17 -18 -17 -17 -18 -18 -17 -17 -18 -18 -17 -18 -18 -18 -18 -18 -18 -18 -17 -16 -16 -15 -11 -10 -10 -9 -9 -8 -8 -8 -8 -8 -8 -9 -10 -10 -10 -10 -10 -10 -10 -10 -9 -9 -9 -9 -9 -9
-17 -17 -19 -18 -17 -17 -16 -16 -17 -18 -18 -18 -17 -18 -18 -18 -18 -18 -18 -17 -16 -16 -14 -12 -10 -10 -10 -9 -9 -9 -8 -8 -8 -9 -10 -10 -10 -10 -10 -10 -11 -10 -10 -9 -9 -9 -9 -9 -10
-18 -18 -18 -19 -18 -17 -16 -16 -16 -17 -18 -18 -18 -18 -18 -18 -18 -19 -19 -17 -16 -16 -15 -13 -11 -10 -10 -10 -9 -9 -8 -9 -9 -9 -10 -11 -10 -10 -11 -11 -11 -10 -10 -10 -9 -10 -9 -10 -10
-18 -17 -18 -19 -18 -18 -17 -15 -17 -17 -18 -17 -17 -18 -18 -18 -18 -19 -19 -18 -17 -16 -14 -13 -11 -11 -10 -10 -9 -9 -9 -9 -9 -9 -10 -10 -10 -11 -11 -11 -11 -10 -10 -10 -10 -10 -9 -10 -10
-18 -18 -18 -18 -18 -18 -18 -16 -18 -18 -18 -18 -17 -17 -18 -18 -19 -18 -19 -18 -17 -16 -13 -12 -12 -11 -11 -10 -10 -9 -9 -9 -9 -10 -9 -9 -10 -11 -11 -11 -11 -10 -10 -10 -10 -10 -10 -10 -10

GFSSGP_500_temp_162.txt.gz
Temp
-6 -5 -5 -5 -5 -4 -5 -5 -6 -7 -7 -7 -8 -8 -8 -6 -6 -6 -5 -5 -4 -5 -4 -5 -5 -4 -4 -4 -3 -3 -3 -3 -3 -3 -3 -3 -3 -3 -3 -3 -3 -3 -3 -3 -3 -3 -3 -4 -4
-5 -5 -5 -5 -5 -4 -5 -5 -5 -7 -7 -7 -8 -8 -7 -7 -6 -6 -6 -5 -4 -5 -4 -5 -5 -5 -4 -4 -4 -4 -3 -3 -3 -3 -3 -3 -3 -3 -3 -3 -3 -3 -3 -3 -3 -4 -4 -4 -4
-5 -5 -5 -4 -4 -4 -5 -5 -6 -7 -7 -6 -7 -8 -8 -8 -7 -6 -6 -6 -5 -5 -5 -5 -5 -4 -4 -5 -4 -4 -4 -3 -3 -3 -4 -4 -4 -4 -4 -4 -4 -3 -4 -4 -4 -4 -4 -4 -5
-5 -5 -4 -4 -4 -4 -5 -5 -5 -6 -7 -7 -7 -8 -8 -7 -5 -6 -6 -6 -5 -5 -5 -5 -5 -5 -5 -5 -5 -4 -4 -4 -4 -4 -4 -4 -4 -4 -4 -4 -4 -4 -4 -4 -4 -4 -4 -5 -5
-4 -4 -4 -4 -4 -4 -4 -5 -5 -6 -7 -7 -8 -7 -7 -7 -5 -5 -6 -6 -5 -5 -5 -6 -5 -5 -5 -5 -5 -5 -4 -4 -4 -4 -4 -4 -4 -4 -4 -4 -4 -4 -4 -4 -4 -5 -5 -5 -5
-4 -4 -4 -3 -4 -4 -4 -5 -6 -6 -6 -7 -8 -7 -7 -7 -7 -5 -5 -6 -7 -6 -6 -6 -5 -5 -5 -6 -5 -4 -4 -4 -4 -4 -4 -4 -4 -4 -4 -4 -4 -4 -4 -4 -5 -5 -5 -5 -5
-5 -4 -3 -3 -3 -4 -5 -5 -5 -6 -6 -7 -7 -7 -6 -7 -7 -6 -4 -5 -7 -6 -6 -6 -6 -6 -6 -6 -5 -5 -4 -4 -4 -4 -4 -5 -5 -4 -4 -4 -4 -4 -4 -4 -4 -5 -5 -5 -5
-5 -4 -3 -3 -3 -4 -6 -6 -6 -6 -6 -7 -7 -7 -7 -7 -7 -6 -5 -4 -6 -7 -6 -6 -6 -6 -5 -5 -6 -5 -5 -5 -5 -4 -4 -5 -4 -5 -5 -4 -4 -4 -4 -4 -4 -5 -5 -5 -5
-5 -4 -4 -4 -4 -4 -6 -5 -6 -6 -5 -7 -8 -8 -8 -7 -8 -6 -4 -4 -5 -7 -7 -6 -6 -6 -6 -6 -6 -6 -5 -5 -5 -5 -5 -4 -4 -5 -5 -4 -4 -4 -4 -4 -4 -4 -4 -5 -5
-5 -5 -5 -5 -5 -5 -5 -5 -6 -5 -5 -6 -7 -8 -8 -8 -5 -6 -6 -4 -5 -6 -7 -7 -7 -6 -6 -6 -6 -6 -6 -6 -5 -5 -5 -5 -5 -5 -5 -5 -4 -4 -4 -4 -4 -4 -4 -5 -5
-5 -5 -5 -5 -5 -5 -5 -5 -5 -5 -5 -6 -7 -8 -8 -7 -7 -5 -5 -4 -4 -6 -7 -7 -6 -6 -7 -6 -6 -6 -6 -6 -6 -5 -5 -5 -5 -5 -5 -5 -5 -5 -4 -4 -4 -4 -5 -5 -5
-6 -6 -5 -6 -5 -5 -5 -5 -5 -5 -5 -6 -7 -8 -8 -8 -7 -7 -6 -5 -4 -4 -6 -7 -7 -6 -5 -6 -6 -5 -5 -6 -6 -6 -6 -5 -6 -5 -5 -5 -5 -5 -4 -5 -5 -5 -5 -5 -5
-6 -6 -6 -6 -6 -6 -6 -5 -6 -6 -6 -6 -7 -7 -8 -9 -8 -8 -7 -6 -5 -4 -4 -6 -7 -6 -6 -6 -6 -5 -6 -6 -6 -6 -6 -6 -6 -6 -6 -6 -5 -5 -5 -5 -5 -5 -5 -5 -6
-7 -6 -7 -7 -7 -7 -7 -6 -6 -6 -7 -7 -8 -9 -9 -9 -9 -9 -8 -8 -6 -5 -4 -6 -6 -7 -7 -6 -6 -5 -6 -6 -6 -6 -6 -6 -6 -6 -6 -6 -6 -6 -5 -6 -6 -6 -6 -6 -6
-8 -8 -9 -9 -9 -9 -9 -7 -7 -7 -7 -8 -8 -8 -10 -9 -9 -9 -9 -9 -7 -6 -6 -5 -6 -6 -7 -7 -6 -6 -6 -6 -6 -7 -7 -6 -6 -7 -7 -7 -6 -7 -6 -6 -7 -6 -6 -7 -7
-10 -10 -10 -11 -11 -11 -11 -7 -9 -9 -9 -9 -9 -9 -9 -10 -9 -10 -10 -9 -9 -8 -6 -6 -7 -6 -6 -6 -6 -6 -7 -7 -7 -7 -7 -7 -7 -7 -7 -7 -7 -7 -7 -7 -7 -7 -7 -7 -7
-12 -11 -12 -12 -14 -14 -13 -11 -11 -11 -12 -11 -10 -9 -10 -10 -10 -10 -10 -11 -10 -9 -8 -7 -7 -7 -7 -7 -6 -7 -7 -7 -7 -8 -7 -7 -7 -7 -7 -7 -7 -8 -7 -7 -7 -7 -7 -7 -7
-14 -14 -14 -14 -14 -15 -14 -14 -14 -14 -14 -13 -13 -13 -11 -11 -10 -11 -12 -12 -12 -10 -9 -9 -7 -8 -8 -7 -7 -7 -8 -8 -7 -8 -8 -7 -7 -7 -8 -8 -8 -8 -8 -7 -7 -7 -7 -7 -6
-15 -15 -15 -15 -15 -15 -14 -14 -14 -14 -14 -14 -14 -14 -13 -12 -12 -11 -12 -12 -13 -11 -10 -10 -9 -8 -9 -8 -7 -7 -8 -8 -8 -8 -8 -8 -8 -8 -8 -8 -9 -8 -8 -7 -8 -8 -7 -7 -7
-16 -16 -15 -15 -15 -14 -14 -14 -14 -13 -14 -14 -14 -15 -15 -14 -13 -12 -11 -12 -13 -13 -12 -11 -10 -9 -9 -9 -8 -8 -8 -8 -9 -8 -8 -8 -8 -8 -8 -8 -9 -9 -8 -8 -8 -8 -7 -7 -8
-16 -16 -16 -16 -15 -15 -16 -16 -16 -16 -17 -16 -17 -17 -17 -18 -16 -13 -12 -12 -13 -13 -13 -12 -12 -10 -9 -9 -9 -8 -8 -8 -9 -8 -8 -9 -9 -8 -8 -9 -9 -9 -8 -8 -8 -7 -8 -8 -8
-16 -17 -16 -15 -15 -15 -16 -16 -16 -18 -18 -18 -18 -18 -18 -18 -18 -16 -15 -13 -13 -13 -13 -13 -13 -12 -9 -10 -10 -9 -8 -9 -8 -9 -10 -10 -9 -8 -9 -9 -9 -9 -9 -8 -8 -8 -8 -8 -8
-15 -16 -16 -15 -15 -16 -16 -17 -15 -18 -17 -17 -18 -19 -18 -18 -18 -17 -17 -16 -14 -13 -13 -13 -13 -12 -11 -9 -10 -11 -9 -9 -8 -8 -9 -9 -8 -8 -9 -9 -9 -10 -9 -9 -9 -9 -9 -9 -9
-16 -16 -16 -16 -16 -15 -16 -18 -16 -17 -17 -18 -18 -19 -19 -19 -18 -18 -17 -17 -17 -16 -14 -13 -13 -13 -12 -10 -10 -11 -10 -9 -7 -7 -9 -9 -8 -7 -9 -9 -10 -10 -10 -10 -9 -9 -9 -9 -9
-17 -17 -16 -16 -16 -15 -17 -17 -15 -17 -18 -18 -18 -18 -19 -19 -18 -18 -18 -17 -17 -16 -15 -15 -14 -13 -12 -11 -10 -10 -10 -9 -9 -7 -8 -9 -9 -8 -9 -10 -10 -10 -10 -10 -10 -9 -9 -9 -9
-17 -18 -18 -17 -16 -16 -16 -16 -16 -17 -18 -18 -17 -17 -18 -18 -18 -18 -18 -18 -18 -17 -16 -15 -15 -13 -12 -12 -10 -10 -10 -10 -9 -7 -8 -9 -9 -10 -10 -10 -10 -10 -10 -11 -10 -9 -9 -9 -9
-16 -17 -18 -18 -17 -16 -15 -15 -16 -17 -18 -18 -18 -18 -18 -18 -18 -18 -18 -18 -17 -18 -17 -17 -16 -14 -13 -12 -10 -10 -10 -10 -9 -8 -8 -9 -9 -10 -10 -10 -10 -10 -12 -11 -10 -10 -10 -10 -9
-17 -16 -17 -18 -18 -17 -16 -16 -16 -17 -17 -17 -18 -18 -18 -18 -18 -17 -17 -18 -17 -17 -18 -16 -16 -15 -13 -12 -11 -11 -10 -10 -9 -9 -8 -9 -9 -10 -10 -10 -10 -10 -11 -11 -10 -10 -10 -10 -10
-18 -18 -18 -18 -18 -18 -17 -16 -16 -17 -18 -18 -18 -18 -19 -19 -19 -18 -17 -17 -16 -17 -17 -17 -15 -15 -14 -12 -11 -12 -11 -10 -9 -9 -10 -9 -8 -9 -9 -10 -10 -10 -11 -10 -10 -10 -10 -10 -10
-18 -18 -19 -19 -19 -19 -19 -15 -17 -18 -18 -17 -17 -18 -18 -18 -18 -17 -16 -17 -17 -17 -17 -17 -16 -15 -14 -13 -12 -11 -10 -10 -9 -10 -9 -7 -9 -9 -9 -10 -10 -10 -11 -10 -10 -10 -10 -10 -10

GFSSGP_500_temp_165.txt.gz
Temp
-6 -6 -6 -5 -5 -5 -5 -6 -7 -7 -8 -7 -7 -6 -7 -7 -7 -6 -6 -6 -5 -5 -5 -5 -4 -4 -4 -4 -4 -4 -3 -3 -4 -4 -4 -4 -4 -4 -4 -4 -4 -3 -3 -3 -3 -3 -3 -4 -4
-6 -6 -6 -5 -5 -5 -5 -7 -7 -7 -8 -8 -7 -7 -8 -7 -6 -5 -6 -6 -6 -5 -5 -5 -4 -4 -4 -4 -4 -4 -4 -4 -4 -4 -4 -4 -4 -4 -4 -4 -4 -3 -3 -3 -4 -4 -4 -4 -4
-5 -5 -5 -5 -5 -4 -5 -7 -8 -7 -8 -8 -7 -6 -5 -6 -6 -5 -5 -5 -5 -6 -6 -5 -4 -4 -4 -4 -4 -4 -4 -4 -4 -4 -4 -4 -4 -4 -4 -4 -4 -4 -4 -4 -4 -4 -3 -4 -4
-5 -5 -5 -4 -4 -5 -6 -6 -7 -8 -8 -8 -7 -7 -6 -6 -6 -5 -5 -5 -6 -6 -6 -5 -5 -5 -4 -5 -5 -4 -4 -4 -4 -4 -4 -4 -4 -4 -4 -4 -4 -4 -4 -4 -4 -4 -4 -3 -4
-5 -5 -4 -4 -4 -5 -5 -6 -6 -7 -8 -7 -7 -7 -6 -6 -5 -6 -6 -6 -6 -6 -6 -6 -5 -5 -5 -5 -5 -4 -4 -4 -4 -4 -4 -4 -4 -5 -5 -4 -4 -4 -4 -4 -4 -4 -4 -4 -4
-5 -5 -4 -4 -4 -5 -5 -6 -6 -6 -7 -8 -7 -7 -7 -6 -6 -6 -6 -6 -6 -6 -6 -6 -6 -5 -5 -5 -5 -5 -4 -4 -4 -4 -4 -4 -5 -5 -5 -5 -4 -4 -4 -4 -4 -4 -4 -4 -4
-5 -4 -4 -4 -4 -5 -5 -6 -6 -6 -6 -7 -7 -7 -7 -6 -5 -6 -6 -5 -5 -6 -6 -6 -6 -6 -6 -5 -6 -6 -5 -4 -5 -5 -5 -5 -5 -5 -5 -5 -4 -4 -4 -4 -4 -4 -4 -4 -4
-5 -4 -3 -4 -4 -4 -5 -5 -6 -6 -6 -7 -8 -7 -7 -7 -6 -5 -5 -5 -5 -6 -6 -6 -6 -6 -6 -6 -6 -6 -5 -5 -5 -5 -5 -5 -5 -5 -5 -5 -5 -4 -4 -4 -4 -4 -4 -4 -4
-4 -3 -3 -4 -5 -5 -5 -5 -5 -6 -6 -7 -7 -7 -7 -7 -7 -6 -6 -5 -5 -6 -6 -6 -7 -7 -6 -6 -6 -6 -6 -5 -5 -5 -5 -5 -5 -5 -5 -5 -5 -5 -4 -4 -4 -4 -4 -4 -4
-5 -4 -4 -5 -4 -4 -5 -4 -5 -5 -5 -6 -7 -7 -7 -7 -7 -7 -6 -6 -5 -5 -6 -6 -7 -8 -7 -6 -6 -6 -6 -6 -6 -6 -6 -6 -6 -5 -5 -5 -5 -5 -5 -5 -4 -4 -4 -5 -5
-5 -5 -5 -5 -5 -5 -4 -5 -5 -5 -5 -6 -6 -7 -8 -7 -7 -6 -6 -6 -6 -7 -5 -6 -7 -7 -7 -8 -7 -6 -6 -6 -6 -6 -6 -6 -6 -6 -6 -6 -6 -5 -5 -5 -5 -5 -5 -5 -5
-6 -6 -5 -5 -5 -5 -5 -5 -5 -5 -5 -6 -6 -7 -8 -7 -8 -8 -7 -7 -6 -6 -7 -7 -7 -8 -8 -8 -8 -7 -7 -7 -6 -7 -6 -6 -6 -6 -6 -6 -6 -6 -5 -5 -5 -6 -5 -5 -5
-6 -6 -6 -5 -5 -6 -5 -5 -5 -6 -6 -6 -7 -7 -7 -8 -8 -8 -8 -8 -8 -7 -7 -7 -7 -7 -8 -8 -7 -7 -7 -8 -7 -7 -7 -7 -6 -6 -6 -6 -6 -6 -6 -6 -6 -6 -6 -6 -5
-7 -7 -7 -7 -7 -6 -6 -6 -5 -6 -7 -7 -7 -8 -9 -8 -9 -8 -8 -8 -8 -7 -8 -8 -7 -7 -6 -7 -8 -7 -7 -7 -7 -7 -7 -7 -7 -6 -7 -7 -7 -7 -7 -7 -7 -7 -6 -6 -6
-7 -7 -7 -8 -8 -7 -7 -6 -6 -6 -6 -7 -7 -7 -8 -10 -9 -9 -9 -9 -8 -8 -7 -8 -7 -7 -7 -6 -6 -7 -7 -7 -7 -8 -8 -8 -7 -7 -7 -7 -7 -7 -8 -8 -8 -7 -7 -6 -6
-8 -8 -8 -9 -9 -9 -8 -6 -7 -7 -7 -7 -7 -8 -8 -9 -10 -9 -10 -9 -9 -9 -9 -8 -7 -7 -7 -7 -7 -6 -7 -8 -7 -8 -8 -8 -8 -7 -7 -7 -8 -8 -8 -8 -8 -8 -7 -6 -6
-9 -9 -9 -9 -10 -10 -10 -8 -9 -9 -9 -8 -8 -8 -9 -8 -9 -10 -10 -10 -10 -10 -10 -9 -8 -7 -7 -7 -7 -7 -7 -8 -7 -7 -8 -8 -8 -8 -7 -7 -8 -8 -9 -9 -8 -8 -7 -7 -6
-10 -11 -10 -10 -13 -13 -13 -11 -12 -12 -11 -11 -11 -10 -9 -10 -9 -10 -10 -10 -11 -10 -10 -10 -10 -9 -7 -8 -8 -8 -7 -7 -7 -7 -7 -7 -8 -8 -8 -8 -8 -8 -9 -9 -9 -8 -7 -7 -6
-12 -13 -14 -15 -15 -15 -15 -14 -13 -13 -14 -14 -14 -13 -12 -10 -11 -11 -10 -11 -11 -11 -11 -11 -11 -10 -10 -8 -8 -8 -8 -8 -8 -8 -8 -7 -8 -8 -8 -8 -8 -9 -9 -9 -9 -8 -8 -7 -7
-16 -16 -16 -15 -16 -16 -16 -15 -14 -14 -14 -14 -14 -14 -14 -13 -12 -12 -11 -11 -12 -12 -12 -11 -11 -11 -10 -10 -9 -8 -8 -9 -8 -8 -8 -8 -8 -8 -8 -8 -9 -9 -9 -10 -9 -9 -8 -8 -8
-15 -15 -16 -15 -15 -15 -15 -14 -14 -14 -16 -15 -15 -14 -13 -14 -13 -13 -13 -12 -12 -13 -13 -12 -12 -12 -12 -11 -10 -9 -8 -9 -9 -8 -8 -9 -9 -9 -8 -9 -9 -10 -10 -10 -9 -9 -8 -8 -8
-14 -16 -15 -15 -15 -15 -16 -14 -13 -15 -16 -15 -15 -16 -16 -15 -14 -14 -13 -13 -13 -13 -13 -13 -13 -13 -13 -12 -11 -10 -9 -9 -9 -9 -8 -9 -9 -9 -9 -9 -9 -10 -10 -10 -10 -9 -8 -8 -8
-15 -16 -16 -16 -16 -15 -15 -16 -12 -16 -16 -16 -17 -16 -16 -16 -16 -17 -17 -14 -13 -14 -13 -13 -14 -14 -13 -13 -12 -11 -11 -10 -10 -9 -8 -8 -9 -9 -10 -10 -9 -10 -10 -10 -10 -10 -9 -9 -9
-15 -15 -15 -16 -16 -15 -16 -16 -13 -16 -16 -17 -17 -17 -17 -17 -18 -18 -18 -18 -14 -15 -14 -14 -14 -14 -14 -14 -13 -12 -11 -11 -10 -10 -9 -9 -9 -9 -9 -10 -9 -9 -10 -10 -10 -10 -10 -9 -9
-15 -15 -15 -15 -15 -15 -16 -15 -14 -16 -17 -17 -17 -18 -17 -17 -17 -18 -18 -18 -18 -17 -16 -15 -16 -15 -14 -14 -14 -13 -12 -11 -11 -11 -11 -9 -9 -9 -9 -9 -9 -8 -10 -10 -10 -10 -10 -9 -9
-15 -16 -16 -16 -16 -16 -16 -15 -14 -16 -16 -17 -17 -17 -18 -18 -18 -18 -18 -19 -19 -18 -17 -17 -16 -17 -16 -14 -14 -14 -13 -11 -11 -11 -10 -10 -9 -9 -9 -9 -9 -9 -10 -10 -10 -11 -11 -10 -9
-16 -16 -17 -17 -16 -16 -16 -15 -15 -16 -17 -17 -17 -17 -17 -17 -18 -18 -18 -18 -19 -18 -17 -18 -17 -17 -16 -16 -15 -14 -13 -12 -11 -11 -10 -9 -9 -9 -9 -9 -8 -9 -10 -10 -11 -10 -11 -10 -10
-16 -17 -18 -18 -17 -16 -16 -16 -16 -17 -18 -17 -17 -17 -18 -18 -17 -18 -18 -18 -18 -18 -18 -18 -18 -17 -17 -16 -16 -15 -14 -13 -11 -11 -11 -10 -8 -8 -9 -9 -8 -9 -9 -10 -10 -10 -11 -10 -10
-17 -17 -17 -18 -18 -18 -16 -16 -18 -18 -17 -17 -17 -17 -17 -17 -17 -18 -18 -18 -18 -18 -17 -17 -18 -18 -17 -16 -16 -15 -15 -13 -11 -12 -11 -10 -9 -9 -9 -9 -8 -9 -9 -9 -10 -11 -11 -11 -10
-16 -17 -17 -18 -17 -18 -18 -15 -18 -19 -20 -19 -17 -17 -17 -17 -17 -18 -17 -17 -17 -16 -17 -17 -17 -18 -18 -16 -17 -16 -14 -13 -11 -12 -11 -10 -9 -9 -10 -9 -9 -9 -8 -9 -10 -10 -12 -11 -10

GFSSGP_500_temp_168.txt.gz
Temp
-6 -6 -6 -5 -6 -5 -6 -6 -7 -7 -7 -7 -7 -6 -4 -4 -4 -5 -5 -5 -5 -5 -5 -5 -4 -4 -4 -4 -4 -4 -4 -4 -4 -4 -4 -4 -4 -4 -4 -4 -4 -4 -4 -4 -4 -4 -4 -4 -4
-6 -6 -6 -6 -5 -5 -7 -8 -7 -7 -7 -6 -7 -7 -5 -4 -4 -4 -5 -4 -5 -5 -6 -5 -5 -4 -4 -4 -4 -4 -4 -4 -4 -4 -4 -4 -4 -4 -4 -4 -4 -4 -4 -4 -4 -4 -4 -4 -4
-6 -6 -6 -5 -5 -5 -8 -8 -7 -8 -7 -7 -7 -7 -7 -6 -5 -4 -4 -4 -4 -5 -5 -5 -5 -5 -4 -4 -4 -4 -4 -4 -4 -4 -4 -4 -4 -5 -5 -5 -5 -4 -4 -4 -4 -4 -4 -4 -4
-5 -5 -5 -5 -5 -6 -7 -8 -7 -7 -7 -7 -8 -7 -7 -7 -5 -5 -5 -5 -5 -5 -5 -6 -6 -5 -4 -4 -4 -4 -4 -4 -4 -4 -4 -4 -5 -5 -5 -5 -5 -4 -4 -4 -4 -4 -4 -4 -4
-5 -5 -5 -4 -5 -5 -6 -7 -8 -7 -7 -7 -7 -7 -7 -6 -6 -5 -5 -5 -6 -6 -5 -6 -7 -6 -5 -5 -5 -4 -4 -4 -4 -4 -4 -4 -5 -5 -5 -5 -4 -4 -4 -4 -4 -4 -4 -4 -4
-5 -5 -4 -4 -5 -5 -6 -7 -7 -7 -7 -7 -7 -7 -7 -6 -6 -5 -6 -5 -6 -6 -6 -6 -7 -6 -6 -5 -5 -5 -5 -5 -5 -4 -4 -4 -5 -5 -5 -5 -5 -4 -4 -4 -4 -4 -4 -4 -4
-5 -5 -4 -4 -4 -5 -6 -6 -6 -7 -7 -7 -7 -6 -6 -7 -6 -6 -6 -6 -6 -6 -6 -7 -7 -7 -7 -6 -6 -6 -6 -5 -5 -5 -5 -5 -5 -5 -5 -5 -5 -5 -4 -4 -4 -4 -4 -4 -4
-4 -4 -4 -4 -5 -5 -6 -6 -6 -6 -6 -7 -7 -7 -7 -6 -6 -7 -6 -6 -6 -6 -6 -6 -7 -7 -7 -7 -6 -6 -6 -6 -5 -5 -5 -5 -5 -5 -5 -5 -5 -5 -5 -5 -5 -4 -4 -4 -4
-5 -4 -4 -5 -5 -5 -5 -5 -6 -6 -6 -6 -7 -7 -7 -7 -7 -7 -7 -6 -6 -6 -6 -7 -6 -6 -7 -7 -7 -7 -7 -6 -6 -6 -6 -6 -6 -6 -6 -6 -6 -6 -5 -5 -5 -5 -5 -5 -5
-4 -4 -4 -4 -5 -5 -5 -5 -6 -5 -6 -6 -7 -7 -8 -8 -7 -7 -7 -7 -7 -6 -5 -6 -6 -6 -6 -7 -8 -7 -7 -7 -6 -6 -6 -6 -6 -6 -6 -6 -6 -6 -6 -6 -6 -5 -5 -5 -5
-4 -4 -5 -4 -4 -5 -5 -6 -5 -5 -5 -6 -6 -7 -8 -7 -8 -8 -7 -7 -7 -7 -7 -6 -6 -6 -7 -7 -7 -8 -7 -7 -7 -7 -7 -6 -6 -6 -6 -6 -6 -6 -6 -6 -6 -6 -5 -5 -5
-5 -5 -5 -5 -5 -5 -5 -5 -6 -6 -6 -6 -6 -6 -7 -7 -7 -7 -7 -7 -7 -7 -7 -7 -6 -6 -6 -6 -7 -6 -7 -8 -8 -8 -8 -7 -7 -7 -7 -7 -7 -7 -6 -6 -7 -6 -6 -5 -5
-6 -6 -5 -5 -5 -6 -6 -5 -5 -6 -6 -6 -6 -6 -7 -7 -7 -7 -7 -7 -7 -7 -7 -7 -7 -6 -6 -6 -6 -6 -6 -8 -8 -8 -8 -8 -8 -7 -7 -7 -7 -7 -7 -7 -7 -7 -6 -6 -6
-6 -6 -6 -6 -6 -6 -6 -6 -5 -6 -6 -6 -6 -7 -7 -7 -7 -7 -7 -7 -7 -7 -7 -7 -7 -7 -7 -7 -6 -6 -6 -6 -7 -8 -8 -8 -8 -8 -7 -7 -7 -8 -7 -7 -8 -7 -6 -6 -6
-7 -7 -7 -7 -7 -6 -6 -6 -6 -6 -6 -6 -6 -7 -7 -8 -7 -7 -7 -7 -7 -8 -8 -7 -7 -8 -7 -7 -7 -6 -6 -6 -7 -7 -8 -8 -8 -8 -8 -8 -8 -8 -8 -8 -8 -8 -7 -6 -6
-8 -8 -8 -8 -8 -8 -7 -6 -7 -6 -6 -7 -7 -7 -7 -7 -9 -8 -7 -7 -8 -8 -8 -8 -8 -8 -8 -7 -7 -7 -6 -7 -7 -7 -8 -8 -8 -9 -8 -9 -8 -8 -8 -8 -9 -8 -8 -7 -7
-10 -9 -9 -9 -10 -10 -9 -7 -8 -8 -8 -7 -8 -8 -8 -7 -8 -10 -9 -8 -8 -8 -9 -10 -10 -9 -9 -9 -8 -8 -7 -7 -7 -7 -7 -8 -8 -8 -9 -9 -9 -9 -9 -9 -9 -9 -8 -8 -7
-10 -10 -10 -10 -11 -12 -10 -8 -9 -9 -10 -9 -9 -9 -9 -9 -8 -9 -11 -10 -9 -9 -9 -9 -10 -10 -10 -10 -9 -8 -8 -8 -7 -7 -8 -8 -8 -8 -9 -9 -9 -9 -9 -9 -9 -9 -9 -8 -7
-12 -12 -12 -12 -12 -13 -12 -10 -10 -12 -12 -12 -12 -12 -11 -10 -9 -10 -11 -11 -11 -10 -10 -12 -11 -11 -11 -10 -10 -10 -9 -8 -8 -8 -8 -7 -8 -8 -9 -9 -8 -8 -9 -9 -9 -9 -9 -9 -8
-13 -13 -13 -13 -13 -14 -14 -14 -14 -14 -14 -15 -14 -13 -13 -12 -12 -11 -12 -12 -11 -11 -11 -11 -12 -12 -11 -11 -11 -10 -9 -9 -9 -8 -9 -9 -9 -9 -9 -9 -9 -9 -9 -9 -9 -10 -10 -9 -8
-13 -14 -13 -13 -14 -14 -15 -14 -14 -15 -15 -15 -15 -15 -14 -14 -13 -13 -13 -13 -13 -12 -12 -12 -12 -12 -13 -12 -12 -11 -11 -9 -9 -9 -8 -9 -9 -9 -9 -10 -10 -9 -9 -9 -10 -10 -10 -10 -9
-13 -14 -14 -14 -14 -14 -14 -14 -13 -15 -15 -16 -15 -14 -14 -14 -14 -15 -14 -14 -14 -14 -13 -12 -12 -12 -13 -13 -13 -12 -12 -11 -8 -9 -10 -10 -10 -10 -9 -9 -10 -9 -10 -10 -10 -10 -10 -10 -10
-14 -14 -14 -15 -15 -15 -15 -15 -13 -14 -15 -16 -15 -15 -15 -15 -15 -15 -15 -15 -14 -14 -14 -14 -13 -13 -13 -14 -14 -13 -13 -12 -10 -8 -10 -11 -10 -9 -9 -9 -9 -9 -9 -10 -9 -10 -10 -10 -10
-14 -13 -14 -14 -15 -14 -15 -15 -12 -14 -15 -16 -15 -15 -15 -15 -15 -16 -16 -16 -16 -16 -15 -14 -14 -14 -13 -13 -14 -14 -13 -13 -12 -10 -10 -10 -10 -10 -9 -9 -9 -9 -10 -10 -9 -10 -9 -10 -10
-15 -15 -14 -14 -14 -14 -14 -14 -13 -15 -15 -16 -16 -16 -16 -15 -15 -15 -16 -17 -17 -16 -17 -17 -16 -15 -15 -14 -13 -14 -14 -13 -13 -12 -11 -11 -11 -10 -10 -8 -9 -9 -10 -10 -9 -10 -9 -10 -10
-15 -15 -15 -15 -15 -15 -15 -13 -14 -14 -15 -16 -16 -17 -17 -16 -16 -16 -16 -16 -17 -17 -17 -18 -18 -17 -17 -16 -15 -14 -14 -14 -13 -13 -11 -11 -11 -11 -10 -9 -9 -9 -9 -9 -9 -9 -10 -10 -11
-16 -16 -16 -15 -15 -15 -13 -13 -13 -15 -15 -15 -16 -16 -16 -17 -17 -17 -17 -17 -17 -17 -17 -18 -19 -18 -18 -17 -17 -15 -15 -14 -14 -13 -13 -11 -12 -11 -11 -10 -9 -9 -9 -9 -9 -9 -9 -10 -11
-16 -16 -16 -17 -16 -15 -14 -14 -13 -14 -16 -16 -16 -16 -17 -17 -17 -17 -17 -17 -17 -17 -17 -17 -18 -19 -19 -18 -17 -17 -16 -15 -15 -13 -13 -12 -12 -11 -11 -10 -9 -8 -8 -9 -9 -9 -9 -10 -10
-16 -16 -17 -17 -17 -17 -15 -14 -15 -16 -17 -17 -17 -18 -18 -18 -18 -18 -18 -18 -18 -18 -17 -17 -17 -18 -18 -18 -18 -18 -17 -17 -14 -15 -14 -13 -13 -12 -12 -10 -9 -9 -9 -9 -9 -8 -9 -9 -10
-16 -17 -17 -17 -17 -17 -17 -14 -16 -17 -17 -17 -17 -19 -18 -17 -17 -18 -17 -18 -18 -18 -17 -18 -18 -18 -17 -18 -18 -18 -18 -17 -16 -14 -14 -14 -13 -12 -12 -11 -10 -9 -9 -8 -8 -8 -9 -9 -10

GFSSGP_500_temp_171.txt.gz
Temp
-6 -6 -6 -6 -6 -6 -6 -7 -7 -7 -6 -5 -5 -4 -4 -5 -4 -4 -3 -4 -5 -5 -4 -4 -4 -4 -4 -4 -3 -3 -3 -3 -3 -3 -4 -4 -4 -4 -4 -4 -4 -4 -4 -4 -4 -4 -4 -4 -4
-6 -6 -6 -6 -6 -6 -6 -7 -7 -7 -7 -6 -5 -5 -4 -4 -5 -4 -4 -4 -5 -5 -4 -4 -4 -5 -4 -4 -4 -3 -3 -3 -3 -3 -4 -4 -4 -5 -5 -4 -4 -4 -4 -4 -4 -4 -4 -4 -4
-6 -6 -6 -6 -6 -6 -6 -7 -7 -7 -7 -7 -7 -5 -4 -4 -4 -4 -4 -4 -4 -4 -5 -5 -5 -5 -5 -4 -4 -4 -4 -4 -3 -3 -4 -4 -4 -5 -5 -5 -4 -4 -4 -4 -4 -4 -4 -4 -4
-6 -6 -6 -6 -6 -6 -6 -7 -7 -7 -7 -7 -7 -7 -6 -5 -4 -4 -4 -4 -4 -4 -4 -5 -5 -5 -5 -4 -4 -4 -4 -4 -4 -4 -4 -4 -4 -5 -5 -5 -5 -5 -4 -4 -4 -4 -4 -4 -4
-5 -5 -5 -5 -6 -6 -6 -7 -7 -7 -7 -7 -7 -6 -7 -6 -5 -4 -4 -4 -4 -4 -4 -5 -5 -6 -6 -5 -5 -5 -5 -4 -4 -4 -4 -4 -5 -5 -5 -5 -5 -5 -5 -5 -4 -4 -4 -4 -4
-5 -5 -5 -5 -5 -6 -6 -6 -6 -6 -6 -7 -6 -6 -6 -6 -6 -5 -5 -5 -5 -5 -5 -5 -5 -6 -6 -6 -6 -5 -5 -5 -4 -4 -4 -5 -5 -5 -5 -5 -5 -5 -5 -5 -5 -4 -4 -4 -4
-5 -5 -5 -5 -5 -5 -5 -6 -6 -6 -6 -6 -6 -6 -5 -6 -6 -6 -5 -5 -6 -6 -6 -5 -5 -5 -6 -6 -6 -6 -6 -5 -5 -5 -5 -5 -5 -5 -5 -5 -5 -5 -5 -5 -5 -5 -5 -4 -4
-5 -5 -5 -5 -5 -5 -5 -5 -5 -6 -6 -6 -6 -6 -5 -5 -6 -6 -7 -6 -6 -6 -6 -6 -6 -6 -6 -6 -6 -6 -6 -6 -6 -5 -5 -5 -5 -6 -6 -6 -6 -5 -5 -5 -5 -5 -5 -5 -4
-5 -5 -5 -5 -6 -5 -5 -5 -5 -6 -6 -6 -6 -6 -6 -6 -6 -6 -7 -6 -6 -6 -6 -6 -6 -6 -6 -6 -6 -6 -6 -6 -6 -6 -6 -6 -6 -6 -6 -6 -6 -6 -5 -5 -5 -5 -5 -5 -5
-5 -5 -5 -5 -5 -5 -5 -5 -6 -6 -6 -6 -7 -7 -6 -7 -6 -7 -7 -7 -7 -6 -6 -6 -6 -6 -6 -6 -6 -7 -7 -7 -7 -7 -7 -7 -7 -7 -6 -7 -7 -6 -6 -6 -6 -5 -5 -5 -5
-5 -5 -5 -5 -5 -5 -5 -5 -5 -5 -5 -6 -6 -6 -7 -7 -7 -7 -7 -7 -6 -6 -7 -6 -6 -6 -6 -7 -6 -6 -7 -7 -7 -7 -7 -7 -7 -7 -7 -7 -7 -7 -7 -6 -6 -6 -5 -5 -5
-5 -5 -5 -4 -5 -5 -5 -5 -5 -5 -5 -5 -5 -6 -6 -7 -7 -7 -7 -7 -7 -6 -7 -7 -7 -6 -6 -7 -6 -6 -6 -7 -7 -7 -8 -8 -8 -8 -8 -8 -7 -7 -7 -7 -7 -6 -6 -5 -5
-5 -5 -5 -5 -5 -5 -5 -5 -6 -5 -6 -6 -5 -5 -5 -6 -6 -7 -7 -7 -7 -7 -7 -6 -7 -6 -6 -7 -7 -6 -6 -7 -6 -7 -7 -8 -8 -8 -8 -7 -8 -8 -8 -8 -8 -7 -6 -6 -6
-6 -6 -6 -6 -6 -6 -6 -6 -6 -6 -6 -6 -6 -5 -6 -6 -6 -6 -7 -7 -7 -7 -7 -7 -7 -7 -6 -6 -7 -8 -7 -6 -7 -7 -7 -7 -8 -7 -8 -8 -8 -8 -8 -8 -8 -8 -7 -6 -6
-7 -7 -7 -7 -7 -7 -6 -6 -6 -6 -7 -6 -6 -6 -6 -6 -7 -7 -7 -7 -7 -7 -7 -7 -7 -7 -7 -6 -7 -7 -7 -7 -6 -7 -7 -7 -7 -8 -8 -8 -8 -8 -8 -8 -8 -8 -8 -7 -7
-7 -7 -7 -8 -8 -8 -7 -6 -6 -7 -7 -7 -7 -7 -7 -6 -6 -7 -7 -7 -7 -7 -7 -7 -7 -8 -8 -8 -7 -7 -7 -7 -7 -7 -8 -8 -8 -8 -8 -8 -8 -8 -8 -9 -9 -9 -8 -8 -7
-9 -9 -9 -9 -10 -9 -9 -7 -8 -8 -8 -8 -7 -7 -8 -7 -7 -8 -8 -8 -8 -8 -8 -8 -8 -8 -8 -8 -9 -8 -8 -7 -7 -7 -7 -8 -8 -8 -8 -8 -8 -8 -8 -8 -9 -9 -9 -8 -8
-10 -10 -10 -10 -11 -11 -10 -9 -9 -10 -9 -9 -9 -8 -8 -9 -8 -9 -8 -8 -8 -8 -9 -9 -8 -8 -9 -9 -8 -9 -9 -8 -8 -7 -7 -7 -8 -8 -8 -8 -8 -8 -8 -8 -9 -9 -9 -9 -9
-11 -10 -10 -11 -12 -12 -12 -11 -12 -12 -12 -11 -11 -12 -11 -10 -9 -9 -9 -9 -8 -9 -9 -10 -9 -9 -9 -9 -9 -9 -9 -9 -9 -8 -8 -8 -8 -8 -8 -8 -8 -9 -9 -9 -9 -9 -9 -9 -9
-11 -10 -11 -12 -12 -13 -13 -11 -13 -13 -14 -14 -14 -14 -13 -12 -12 -12 -12 -11 -10 -9 -9 -10 -11 -10 -10 -10 -10 -10 -10 -10 -9 -8 -8 -8 -9 -9 -8 -8 -8 -9 -9 -9 -9 -9 -9 -9 -9
-11 -12 -12 -12 -12 -13 -12 -11 -13 -13 -14 -15 -15 -14 -15 -14 -14 -14 -13 -13 -12 -12 -11 -11 -10 -12 -12 -10 -10 -11 -11 -10 -10 -10 -9 -8 -9 -9 -9 -9 -9 -9 -10 -9 -9 -9 -9 -9 -10
-13 -13 -13 -13 -13 -12 -12 -12 -12 -13 -14 -15 -15 -14 -14 -14 -14 -14 -14 -14 -14 -14 -13 -12 -12 -11 -13 -13 -12 -11 -11 -11 -11 -10 -10 -9 -9 -9 -9 -10 -10 -9 -9 -8 -9 -10 -9 -9 -10
-14 -14 -13 -13 -13 -13 -14 -13 -12 -13 -14 -14 -15 -14 -14 -14 -14 -14 -14 -14 -14 -14 -14 -14 -13 -12 -12 -12 -13 -12 -12 -12 -12 -11 -11 -10 -10 -10 -10 -10 -10 -10 -9 -9 -9 -9 -9 -9 -10
-14 -14 -14 -14 -13 -13 -13 -13 -12 -14 -13 -14 -15 -14 -14 -14 -15 -14 -14 -14 -14 -14 -15 -14 -14 -13 -13 -13 -13 -13 -14 -13 -13 -12 -12 -11 -10 -10 -10 -10 -10 -10 -9 -9 -8 -9 -9 -10 -10
-15 -15 -14 -13 -13 -13 -13 -13 -13 -13 -13 -14 -15 -15 -14 -14 -14 -15 -15 -14 -15 -15 -15 -15 -15 -14 -14 -14 -14 -14 -13 -14 -14 -13 -13 -12 -11 -11 -10 -11 -10 -11 -10 -9 -9 -8 -9 -10 -10
-15 -15 -15 -14 -14 -14 -14 -13 -13 -13 -14 -14 -14 -15 -16 -15 -15 -16 -15 -15 -15 -15 -16 -15 -15 -15 -15 -15 -15 -15 -14 -13 -14 -14 -13 -13 -13 -12 -12 -11 -11 -11 -10 -10 -9 -9 -8 -9 -10
-15 -15 -15 -15 -14 -14 -13 -13 -13 -14 -14 -14 -15 -15 -15 -16 -16 -17 -17 -17 -16 -15 -16 -16 -16 -16 -16 -16 -16 -17 -15 -15 -14 -14 -14 -14 -13 -13 -12 -12 -11 -11 -9 -9 -8 -9 -9 -8 -9
-16 -16 -16 -16 -15 -14 -14 -14 -14 -14 -14 -14 -14 -15 -15 -16 -16 -16 -17 -17 -17 -16 -16 -16 -16 -16 -16 -16 -17 -17 -17 -16 -15 -14 -15 -14 -14 -13 -12 -12 -12 -11 -11 -9 -9 -9 -9 -9 -9
-16 -16 -16 -16 -16 -16 -15 -13 -15 -15 -15 -15 -15 -15 -16 -16 -16 -16 -17 -17 -17 -17 -18 -17 -17 -17 -17 -17 -17 -17 -18 -18 -16 -16 -15 -15 -13 -10 -8 -10 -11 -11 -11 -10 -9 -9 -9 -9 -9
-17 -16 -16 -16 -16 -16 -16 -13 -16 -16 -16 -16 -16 -16 -17 -17 -17 -18 -18 -18 -18 -18 -18 -18 -17 -17 -17 -17 -17 -17 -18 -19 -18 -16 -16 -16 -14 -11 -9 -12 -11 -11 -11 -10 -10 -9 -7 -9 -9

GFSSGP_500_temp_174.txt.gz
Temp
-6 -6 -6 -6 -6 -6 -6 -6 -6 -6 -5 -5 -5 -5 -4 -4 -4 -4 -3 -3 -4 -3 -4 -3 -3 -3 -3 -4 -3 -3 -3 -3 -3 -3 -3 -3 -4 -4 -4 -4 -4 -4 -4 -4 -4 -4 -3 -3 -3
-6 -6 -6 -6 -6 -6 -7 -6 -6 -6 -5 -5 -5 -5 -5 -4 -5 -4 -4 -3 -3 -3 -3 -4 -3 -4 -4 -4 -4 -3 -3 -3 -3 -3 -3 -3 -4 -4 -4 -4 -4 -4 -4 -4 -4 -4 -3 -3 -3
-6 -6 -6 -6 -6 -6 -8 -6 -6 -6 -6 -5 -5 -5 -4 -4 -5 -5 -4 -4 -4 -4 -3 -3 -3 -4 -4 -4 -4 -4 -3 -4 -3 -3 -3 -4 -4 -4 -4 -4 -4 -4 -4 -4 -4 -4 -3 -3 -3
-6 -6 -6 -6 -6 -6 -6 -6 -6 -6 -6 -6 -5 -5 -4 -4 -5 -5 -5 -5 -4 -4 -3 -3 -3 -3 -4 -4 -4 -4 -4 -4 -4 -4 -4 -4 -4 -4 -4 -4 -4 -4 -4 -4 -4 -4 -4 -4 -3
-6 -6 -6 -6 -6 -6 -6 -6 -6 -6 -6 -6 -6 -5 -5 -5 -4 -5 -4 -4 -4 -4 -4 -4 -4 -4 -4 -4 -4 -4 -4 -4 -4 -4 -4 -4 -4 -4 -4 -4 -5 -4 -4 -4 -4 -4 -4 -4 -4
-5 -5 -5 -5 -6 -5 -6 -6 -6 -6 -6 -6 -6 -7 -5 -5 -4 -4 -4 -4 -5 -4 -4 -4 -5 -4 -4 -4 -4 -5 -5 -5 -4 -4 -4 -5 -5 -5 -5 -5 -5 -5 -5 -5 -5 -4 -4 -4 -4
-5 -5 -5 -5 -5 -5 -5 -6 -6 -6 -6 -5 -5 -6 -6 -6 -5 -5 -4 -4 -5 -5 -5 -5 -5 -5 -5 -4 -5 -5 -5 -5 -5 -4 -5 -5 -5 -5 -5 -5 -5 -5 -5 -5 -5 -5 -5 -4 -4
-5 -6 -5 -5 -5 -6 -4 -5 -5 -6 -6 -6 -5 -5 -5 -5 -6 -6 -5 -4 -4 -5 -5 -5 -6 -6 -6 -5 -5 -6 -6 -6 -5 -5 -5 -5 -5 -6 -6 -6 -6 -6 -5 -5 -5 -5 -5 -4 -4
-6 -5 -6 -6 -6 -5 -4 -5 -5 -5 -6 -6 -6 -6 -5 -5 -5 -5 -6 -6 -5 -5 -5 -6 -6 -6 -6 -6 -6 -6 -6 -6 -6 -6 -5 -5 -5 -6 -6 -6 -6 -6 -6 -6 -6 -5 -5 -5 -5
-6 -6 -5 -5 -6 -6 -5 -5 -5 -6 -6 -6 -6 -6 -6 -5 -5 -5 -5 -5 -6 -6 -5 -5 -5 -6 -6 -6 -6 -6 -6 -6 -6 -6 -6 -6 -6 -6 -6 -6 -7 -6 -6 -6 -6 -6 -5 -5 -5
-6 -6 -5 -5 -5 -5 -5 -5 -5 -5 -5 -5 -6 -6 -6 -6 -6 -6 -5 -5 -6 -6 -6 -5 -5 -6 -6 -6 -6 -6 -6 -6 -6 -6 -6 -6 -6 -6 -6 -6 -7 -6 -6 -6 -6 -6 -6 -6 -5
-6 -5 -5 -5 -6 -5 -5 -5 -5 -5 -5 -5 -5 -5 -5 -6 -6 -6 -6 -6 -6 -6 -6 -6 -6 -6 -6 -6 -6 -6 -6 -6 -7 -7 -6 -6 -7 -7 -7 -7 -7 -7 -7 -7 -7 -6 -6 -6 -6
-6 -5 -6 -6 -6 -6 -6 -6 -5 -5 -5 -5 -5 -5 -5 -5 -6 -6 -6 -6 -6 -6 -6 -6 -6 -6 -6 -6 -7 -7 -7 -7 -7 -7 -7 -7 -7 -7 -7 -7 -7 -7 -7 -7 -7 -7 -7 -7 -7
-6 -6 -6 -6 -6 -6 -6 -6 -6 -6 -6 -5 -5 -6 -6 -6 -6 -6 -6 -6 -6 -6 -6 -6 -6 -6 -7 -7 -6 -7 -7 -7 -7 -7 -7 -7 -7 -7 -6 -6 -7 -7 -7 -7 -8 -8 -8 -7 -7
-7 -7 -7 -6 -6 -6 -6 -6 -6 -6 -6 -6 -6 -6 -6 -6 -7 -6 -6 -6 -6 -7 -7 -7 -6 -6 -6 -7 -7 -7 -7 -7 -7 -7 -7 -7 -7 -7 -7 -7 -7 -7 -7 -7 -7 -8 -8 -8 -7
-7 -7 -7 -6 -7 -7 -7 -7 -7 -7 -7 -7 -7 -7 -6 -6 -6 -7 -7 -7 -7 -7 -7 -7 -7 -7 -7 -7 -7 -7 -7 -7 -7 -7 -7 -7 -7 -7 -7 -7 -7 -7 -7 -7 -8 -8 -8 -8 -8
-8 -8 -8 -8 -8 -8 -8 -7 -8 -8 -8 -8 -8 -8 -7 -7 -7 -7 -7 -7 -7 -7 -7 -7 -7 -7 -8 -8 -8 -8 -8 -7 -7 -7 -8 -7 -7 -7 -7 -8 -8 -8 -8 -8 -8 -8 -8 -8 -8
-9 -9 -10 -10 -10 -10 -10 -9 -10 -10 -9 -9 -9 -8 -8 -8 -7 -7 -7 -7 -7 -7 -7 -8 -7 -7 -7 -8 -8 -8 -8 -8 -8 -8 -7 -8 -8 -8 -7 -8 -8 -8 -8 -8 -8 -8 -8 -8 -8
-11 -11 -11 -11 -11 -11 -10 -10 -11 -11 -11 -11 -11 -11 -10 -9 -9 -8 -7 -7 -8 -8 -8 -8 -8 -8 -8 -7 -8 -8 -8 -9 -9 -9 -8 -8 -8 -8 -8 -8 -8 -8 -8 -8 -9 -9 -8 -8 -8
-11 -11 -11 -11 -11 -11 -11 -11 -11 -12 -12 -13 -13 -13 -12 -12 -11 -11 -10 -9 -8 -8 -8 -9 -9 -9 -9 -9 -8 -8 -9 -9 -10 -10 -9 -9 -8 -8 -8 -9 -8 -8 -8 -8 -8 -8 -9 -9 -8
-11 -11 -11 -11 -12 -12 -12 -12 -12 -12 -12 -13 -13 -12 -12 -12 -13 -13 -13 -12 -11 -10 -10 -10 -10 -10 -10 -10 -10 -9 -9 -10 -9 -9 -10 -10 -9 -9 -9 -9 -9 -9 -8 -9 -8 -9 -9 -9 -9
-11 -12 -12 -13 -13 -13 -13 -12 -12 -12 -13 -13 -13 -13 -12 -12 -12 -13 -13 -13 -13 -13 -12 -12 -12 -11 -11 -11 -11 -10 -10 -10 -11 -11 -11 -10 -10 -9 -9 -9 -9 -10 -9 -9 -9 -9 -9 -9 -9
-12 -12 -13 -13 -14 -14 -14 -13 -12 -12 -13 -14 -14 -13 -13 -13 -13 -13 -13 -13 -13 -13 -14 -14 -14 -13 -12 -12 -12 -12 -11 -11 -11 -12 -11 -11 -10 -10 -9 -9 -9 -9 -9 -9 -9 -9 -9 -9 -9
-13 -13 -13 -13 -14 -13 -13 -13 -12 -13 -13 -14 -14 -14 -13 -13 -13 -13 -14 -14 -14 -14 -13 -13 -14 -14 -14 -13 -13 -13 -13 -13 -12 -12 -12 -12 -11 -10 -10 -10 -10 -9 -10 -9 -9 -9 -9 -9 -9
-13 -14 -14 -14 -15 -15 -13 -13 -13 -13 -14 -14 -14 -15 -14 -13 -13 -13 -13 -15 -15 -14 -14 -14 -14 -14 -14 -13 -13 -13 -13 -14 -14 -14 -13 -12 -11 -11 -10 -10 -10 -10 -10 -10 -10 -9 -9 -9 -9
-14 -15 -15 -15 -15 -15 -14 -13 -14 -14 -14 -14 -13 -14 -15 -15 -15 -15 -14 -14 -15 -15 -15 -15 -14 -14 -14 -14 -14 -14 -14 -14 -14 -14 -14 -13 -12 -12 -11 -11 -11 -11 -10 -10 -10 -10 -10 -9 -9
-15 -16 -16 -16 -15 -14 -14 -13 -13 -14 -14 -13 -13 -13 -14 -15 -15 -15 -15 -15 -15 -15 -16 -15 -15 -15 -14 -15 -14 -15 -15 -15 -14 -15 -14 -13 -12 -12 -12 -12 -12 -11 -11 -10 -10 -10 -10 -9 -9
-16 -16 -16 -16 -15 -15 -14 -15 -16 -15 -15 -15 -14 -14 -14 -15 -15 -16 -15 -15 -14 -15 -15 -15 -16 -16 -15 -15 -15 -15 -15 -15 -15 -15 -15 -15 -13 -12 -12 -12 -12 -12 -12 -11 -10 -10 -10 -10 -9
-16 -16 -16 -16 -16 -16 -15 -14 -16 -15 -15 -15 -15 -15 -15 -16 -16 -17 -17 -16 -16 -16 -16 -16 -16 -16 -16 -16 -16 -15 -15 -16 -16 -16 -16 -16 -15 -14 -13 -13 -12 -12 -12 -11 -11 -12 -11 -10 -10
-16 -17 -17 -17 -16 -16 -16 -13 -15 -15 -15 -15 -16 -16 -16 -16 -16 -17 -17 -17 -17 -17 -16 -16 -16 -16 -16 -16 -16 -16 -16 -16 -16 -18 -18 -17 -16 -15 -15 -14 -13 -12 -12 -12 -11 -11 -12 -11 -10